Date String (YYYY-MM-DD hh:mm:ss) UTC,Instrument flags,Ambient pressure (hPa),Sample flow (lpm),Bypass flow (lpm),Sample temperature (°C),Ambient temperature (°C),ASC tube jacket temperature (°C),LED temperature (°C),Box temperature (°C),Sample RH (%),Span deviation,Mass concentration (μg/m³),Mass concentration (μg/m³),Mass concentration (μg/m³)
DateTimeUTC,F1_M11,P_M11,Q1_M11,Q2_M11,T1_M11,T2_M11,T3_M11,T4_M11,T5_M11,U1_M11,ZSPAN_M11,X2_M11,X0_M11,X1_M11
2023-01-18 10:00:00,,0813.7,4.99,0.00,22.7,22.6,00.0,31.3,24.7,14.3,-003.1,0004.14,0005.53,0004.10
2023-01-18 10:01:00,,0813.6,5.01,0.00,22.7,22.2,00.0,31.4,24.6,14.3,-003.1,0004.15,0005.55,0004.11
2023-01-18 10:02:00,,0813.6,5.01,0.00,22.7,21.8,00.0,31.4,24.5,14.3,-003.1,0004.16,0005.54,0004.13
2023-01-18 10:03:00,,0813.6,5.01,0.00,22.7,21.6,00.0,31.4,24.5,14.3,-002.9,0004.18,0005.53,0004.15
2023-01-18 10:04:00,,0813.5,4.99,0.00,22.7,21.4,00.0,31.4,24.4,14.3,-002.9,0004.19,0005.53,0004.16
2023-01-18 10:05:00,,0813.5,5.00,0.00,22.7,21.2,00.0,31.4,24.4,14.3,-002.9,0004.20,0005.52,0004.17
2023-01-18 10:06:00,,0813.5,5.01,0.00,22.6,21.1,00.0,31.4,24.3,14.3,-003.0,0004.20,0005.53,0004.18
2023-01-18 10:07:00,,0813.5,5.00,0.00,22.6,21.0,00.0,31.4,24.3,14.4,-003.0,0004.22,0005.55,0004.21
2023-01-18 10:08:00,,0813.5,5.01,0.00,22.6,20.9,00.0,31.4,24.3,14.4,-002.9,0004.24,0005.59,0004.23
2023-01-18 10:09:00,,0813.5,5.01,0.00,22.6,20.9,00.0,31.4,24.3,14.4,-002.9,0004.26,0005.62,0004.24
2023-01-18 10:10:00,,0813.5,4.99,0.00,22.6,20.8,00.0,31.4,24.3,14.4,-002.8,0004.27,0005.65,0004.26
2023-01-18 10:11:00,,0813.5,5.00,0.00,22.5,20.8,00.0,31.4,24.2,14.4,-002.8,0004.28,0005.64,0004.26
2023-01-18 10:12:00,,0813.6,5.00,0.00,22.5,20.8,00.0,31.3,24.2,14.4,-002.6,0004.27,0005.63,0004.25
2023-01-18 10:13:00,,0813.5,5.01,0.00,22.5,20.8,00.0,31.3,24.2,14.4,-002.6,0004.28,0005.68,0004.24
2023-01-18 10:14:00,,0813.5,5.00,0.00,22.5,20.7,00.0,31.3,24.2,14.5,-002.8,0004.27,0005.71,0004.23
2023-01-18 10:15:00,,0813.5,4.98,0.00,22.5,20.7,00.0,31.3,24.1,14.5,-002.8,0004.26,0005.68,0004.22
2023-01-18 10:16:00,,0813.5,4.98,0.00,22.4,20.7,00.0,31.3,24.1,14.5,-002.7,0004.25,0005.67,0004.21
2023-01-18 10:17:00,,0813.5,4.99,0.00,22.4,20.6,00.0,31.3,24.1,14.5,-002.5,0004.24,0005.64,0004.20
2023-01-18 10:18:00,,0813.5,5.00,0.00,22.4,20.6,00.0,31.3,24.1,14.5,-002.2,0004.22,0005.60,0004.18
2023-01-18 10:19:00,,0813.5,5.00,0.00,22.4,20.6,00.0,31.3,24.0,14.6,-002.1,0004.20,0005.56,0004.16
2023-01-18 10:20:00,,0813.5,4.98,0.00,22.4,21.0,00.0,31.2,24.1,14.6,-002.1,0004.18,0005.53,0004.13
2023-01-18 10:21:00,,0813.5,5.00,0.00,22.4,22.0,00.0,31.2,24.3,14.5,-002.3,0004.15,0006.23,0004.09
2023-01-18 10:22:00,,0813.6,5.00,0.00,22.6,22.8,00.0,31.2,24.5,14.4,-002.2,0004.13,0006.73,0004.05
2023-01-18 10:23:00,,0813.5,4.99,0.00,22.6,22.7,00.0,31.3,24.6,14.4,-002.3,0004.11,0006.69,0004.02
2023-01-18 10:24:00,,0813.5,5.00,0.00,22.6,22.3,00.0,31.3,24.5,14.4,-002.4,0004.07,0006.56,0003.99
2023-01-18 10:25:00,,0813.5,5.01,0.00,22.6,21.8,00.0,31.3,24.4,14.4,-001.9,0004.03,0006.45,0003.96
2023-01-18 10:26:00,,0813.5,5.01,0.00,22.6,21.5,00.0,31.3,24.4,14.4,-002.1,0004.01,0006.47,0003.94
2023-01-18 10:27:00,,0813.5,4.99,0.00,22.6,21.2,00.0,31.3,24.3,14.4,-002.1,0004.00,0006.53,0003.91
2023-01-18 10:28:00,,0813.5,5.00,0.00,22.6,21.0,00.0,31.3,24.2,14.4,-001.7,0003.98,0006.52,0003.89
2023-01-18 10:29:00,,0813.4,4.99,0.00,22.5,20.9,00.0,31.3,24.2,14.4,-001.4,0003.99,0006.71,0003.88
2023-01-18 10:30:00,,0813.5,5.01,0.00,22.5,20.8,00.0,31.3,24.1,14.5,-001.3,0003.99,0006.74,0003.86
2023-01-18 10:31:00,,0813.4,5.01,0.00,22.4,20.6,00.0,31.3,24.1,14.5,-001.5,0003.96,0006.68,0003.84
2023-01-18 10:32:00,,0813.4,5.00,0.00,22.4,20.6,00.0,31.3,24.0,14.5,-001.1,0003.95,0006.36,0003.84
2023-01-18 10:33:00,,0813.5,5.00,0.00,22.4,20.5,00.0,31.3,24.0,14.6,-001.0,0003.95,0005.33,0003.84
2023-01-18 10:34:00,,0813.6,5.02,0.00,22.3,20.4,00.0,31.2,24.0,14.6,-000.9,0003.96,0005.36,0003.86
2023-01-18 10:35:00,,0813.4,5.01,0.00,22.3,20.3,00.0,31.2,23.9,14.6,-000.8,0003.99,0005.44,0003.88
2023-01-18 10:36:00,,0813.4,5.01,0.00,22.3,20.3,00.0,31.2,23.9,14.7,-001.3,0004.03,0005.55,0003.90
2023-01-18 10:37:00,,0813.4,4.99,0.00,22.3,20.3,00.0,31.2,23.9,14.7,-001.7,0004.05,0005.65,0003.91
2023-01-18 10:38:00,,0813.4,5.01,0.00,22.2,20.2,00.0,31.2,23.8,14.7,-001.8,0004.05,0005.57,0003.93
2023-01-18 10:39:00,,0813.4,5.01,0.00,22.2,20.2,00.0,31.1,23.8,14.7,-002.4,0004.07,0005.57,0003.94
2023-01-18 10:40:00,,0813.4,5.01,0.00,22.2,20.4,00.0,31.1,23.8,14.8,-002.8,0004.08,0005.53,0003.96
2023-01-18 10:41:00,,0813.5,4.99,0.00,22.3,21.6,00.0,31.1,24.1,14.7,-003.2,0004.10,0005.54,0003.98
2023-01-18 10:42:00,,0813.5,5.00,0.00,22.4,22.6,00.0,31.1,24.3,14.6,-002.6,0004.13,0005.58,0004.01
2023-01-18 10:43:00,,0813.5,5.00,0.00,22.5,22.7,00.0,31.1,24.4,14.6,-002.4,0004.16,0005.68,0004.02
2023-01-18 10:44:00,,0813.4,4.99,0.00,22.5,22.2,00.0,31.2,24.4,14.5,-002.3,0004.17,0005.74,0004.03
2023-01-18 10:45:00,,0813.4,5.00,0.00,22.5,21.7,00.0,31.2,24.3,14.5,-002.4,0004.16,0005.70,0004.03
2023-01-18 10:46:00,,0813.4,5.00,0.00,22.4,21.4,00.0,31.2,24.2,14.5,-002.4,0004.16,0005.72,0004.02
2023-01-18 10:47:00,,0813.4,5.00,0.00,22.4,21.1,00.0,31.2,24.1,14.6,-002.3,0004.13,0005.72,0004.01
2023-01-18 10:48:00,,0813.5,5.00,0.00,22.4,20.9,00.0,31.2,24.0,14.6,-002.1,0004.12,0005.63,0004.00
2023-01-18 10:49:00,,0813.4,5.00,0.00,22.4,20.7,00.0,31.2,24.0,14.6,-001.5,0004.11,0005.64,0004.00
2023-01-18 10:50:00,,0813.3,4.99,0.00,22.3,20.6,00.0,31.2,24.0,14.6,-001.0,0004.11,0005.67,0004.00
2023-01-18 10:51:00,,0813.5,5.01,0.00,22.3,20.5,00.0,31.2,23.9,14.7,-001.0,0004.09,0005.62,0003.99
2023-01-18 10:52:00,,0813.3,5.00,0.00,22.3,20.4,00.0,31.1,23.9,14.7,-000.7,0004.09,0005.60,0003.99
2023-01-18 10:53:00,,0813.4,4.99,0.00,22.2,20.3,00.0,31.1,23.8,14.7,-001.0,0004.10,0005.61,0003.99
2023-01-18 10:54:00,,0813.3,4.98,0.00,22.2,20.3,00.0,31.1,23.8,14.7,-001.3,0004.09,0005.53,0004.00
2023-01-18 10:55:00,,0813.3,4.99,0.00,22.2,20.2,00.0,31.1,23.7,14.8,-001.4,0004.11,0005.52,0004.02
2023-01-18 10:56:00,,0813.4,5.00,0.00,22.1,20.1,00.0,31.1,23.7,14.8,-001.4,0004.13,0005.55,0004.04
2023-01-18 10:57:00,,0813.4,5.00,0.00,22.1,20.1,00.0,31.1,23.6,14.9,-001.4,0004.14,0005.50,0004.06
2023-01-18 10:58:00,,0813.3,5.00,0.00,22.1,20.0,00.0,31.0,23.7,14.9,-001.1,0004.15,0005.42,0004.08
2023-01-18 10:59:00,,0813.3,5.00,0.00,22.0,20.2,00.0,31.0,23.7,14.9,-001.3,0004.17,0005.45,0004.10
